N674MP EGLC-LIRQ

Flight info

Callsign N674MP
Flight time N/A
Altitude 23000
Route SOQQA M87 UMTUM L9 KONAN/N0503F450 UL607 REMBA M624 DIK N852 SUTAL DCT GTQ DCT POGOL DCT LASAT DCT DEVDI DCT RIPUS DCT RESIA DCT ADOSA/N0458F190 L612 ALBET M726 LUMAV Q58 BIKTU
Aircraft C750/M-SBDE3FGHRWXY/S

Departure

Time N/A
Airport London City Airport (EGLC)

Arrival

Time 2026-04-27 18:55
Airport Florence Airport, Peretola (LIRQ)
Time Latitude Longitude Altitude Speed Heading
2026-04-27 17:23 51.19224 1.13530 24582 ft 458 kts 101°
2026-04-27 17:23 51.18573 1.18509 25105 ft 461 kts 102°
2026-04-27 17:23 51.17902 1.23526 25611 ft 464 kts 102°
2026-04-27 17:24 51.17232 1.28568 26130 ft 467 kts 101°
2026-04-27 17:24 51.16563 1.33652 26642 ft 470 kts 101°
2026-04-27 17:24 51.16114 1.38815 27084 ft 473 kts 93°
2026-04-27 17:24 51.15897 1.44055 27629 ft 475 kts 93°
2026-04-27 17:25 51.15639 1.49315 28164 ft 478 kts 94°
2026-04-27 17:25 51.15359 1.54610 28670 ft 481 kts 94°
2026-04-27 17:25 51.15100 1.59938 29190 ft 484 kts 94°
2026-04-27 17:25 51.14851 1.65311 29694 ft 488 kts 94°
2026-04-27 17:26 51.14584 1.70707 30193 ft 491 kts 94°
2026-04-27 17:26 51.14302 1.76149 30606 ft 494 kts 94°
2026-04-27 17:26 51.14022 1.81620 30983 ft 498 kts 94°
2026-04-27 17:26 51.13750 1.87063 31437 ft 499 kts 94°
2026-04-27 17:27 51.13468 1.92563 32037 ft 498 kts 95°
2026-04-27 17:27 51.13178 1.98070 32526 ft 500 kts 95°
2026-04-27 17:27 51.12886 2.03584 33054 ft 500 kts 95°
2026-04-27 17:27 51.12596 2.09105 33593 ft 501 kts 95°
2026-04-27 17:28 51.12301 2.14637 34138 ft 501 kts 96°
2026-04-27 17:28 51.12001 2.20171 34633 ft 501 kts 96°
2026-04-27 17:28 51.11397 2.31203 35680 ft 499 kts 95°
2026-04-27 17:29 51.11093 2.36704 36207 ft 499 kts 95°
2026-04-27 17:29 51.10785 2.42202 36702 ft 499 kts 95°
2026-04-27 17:29 51.10475 2.47692 37238 ft 498 kts 95°
2026-04-27 17:29 51.10164 2.53177 37810 ft 497 kts 95°
2026-04-27 17:30 51.09850 2.58650 38389 ft 496 kts 94°
2026-04-27 17:30 51.08798 2.69473 39368 ft 495 kts 105°
2026-04-27 17:30 51.07813 2.74641 39831 ft 494 kts 108°
2026-04-27 17:31 51.06767 2.79835 40298 ft 493 kts 107°
2026-04-27 17:31 51.05830 2.85078 40791 ft 492 kts 104°
2026-04-27 17:31 51.04942 2.90345 41250 ft 492 kts 105°
2026-04-27 17:31 51.03991 2.95563 41715 ft 491 kts 106°
2026-04-27 17:32 51.02996 3.00748 42174 ft 490 kts 106°
2026-04-27 17:32 51.01105 3.11131 43075 ft 489 kts 105°
2026-04-27 17:32 51.00157 3.16313 43522 ft 488 kts 105°
2026-04-27 17:33 50.99184 3.21481 43954 ft 488 kts 106°
2026-04-27 17:33 50.98218 3.26636 44383 ft 487 kts 105°
2026-04-27 17:33 50.97265 3.31794 44818 ft 487 kts 105°
2026-04-27 17:33 50.96311 3.36942 45193 ft 486 kts 105°
2026-04-27 17:34 50.95351 3.42050 45194 ft 494 kts 105°
2026-04-27 17:34 50.93353 3.52650 45205 ft 509 kts 105°
2026-04-27 17:35 50.91295 3.63549 45203 ft 523 kts 106°
2026-04-27 17:35 50.89160 3.74646 45203 ft 529 kts 106°
2026-04-27 17:36 50.87005 3.85779 45198 ft 529 kts 106°
2026-04-27 17:36 50.84840 3.96913 45196 ft 529 kts 106°
2026-04-27 17:37 50.82662 4.08039 45193 ft 529 kts 106°
2026-04-27 17:37 50.80477 4.19148 45191 ft 529 kts 107°
2026-04-27 17:38 50.78277 4.30257 45175 ft 529 kts 107°
2026-04-27 17:38 50.76069 4.41351 45180 ft 529 kts 107°
2026-04-27 17:39 50.73850 4.52432 45176 ft 529 kts 107°
2026-04-27 17:39 50.71626 4.63507 45176 ft 529 kts 107°
2026-04-27 17:40 50.69522 4.74558 45183 ft 529 kts 106°
2026-04-27 17:40 50.67296 4.85620 45163 ft 529 kts 110°
2026-04-27 17:41 50.63713 4.95724 45165 ft 530 kts 128°
2026-04-27 17:41 50.58571 5.04000 45179 ft 528 kts 140°
2026-04-27 17:42 50.53915 5.10251 45171 ft 529 kts 139°
2026-04-27 17:42 50.48729 5.18486 45171 ft 530 kts 134°
2026-04-27 17:43 50.43476 5.26571 45160 ft 528 kts 138°
2026-04-27 17:43 50.38180 5.34605 45161 ft 529 kts 135°
2026-04-27 17:44 50.32930 5.42710 45160 ft 529 kts 137°
2026-04-27 17:44 50.27655 5.50647 45150 ft 529 kts 136°
2026-04-27 17:45 50.22390 5.58704 45156 ft 529 kts 137°
2026-04-27 17:45 50.17084 5.66668 45150 ft 529 kts 136°
2026-04-27 17:46 50.11803 5.74662 45146 ft 530 kts 137°
2026-04-27 17:46 50.06481 5.82627 45145 ft 531 kts 137°
2026-04-27 17:47 50.01162 5.90616 45126 ft 530 kts 137°
2026-04-27 17:47 49.95836 5.98555 45130 ft 531 kts 137°
2026-04-27 17:48 49.90506 6.06488 45129 ft 530 kts 137°
2026-04-27 17:48 49.84846 6.13780 45115 ft 528 kts 149°
2026-04-27 17:49 49.78294 6.18631 45141 ft 526 kts 160°
2026-04-27 17:49 49.71465 6.22734 45133 ft 527 kts 158°
2026-04-27 17:50 49.64820 6.27551 45136 ft 526 kts 158°
2026-04-27 17:50 49.54661 6.33944 45127 ft 526 kts 158°
2026-04-27 17:51 49.47948 6.38397 45128 ft 526 kts 159°
2026-04-27 17:51 49.41235 6.42877 45122 ft 526 kts 158°
2026-04-27 17:52 49.34536 6.47422 45126 ft 526 kts 158°
2026-04-27 17:52 49.27841 6.51978 45121 ft 526 kts 158°
2026-04-27 17:53 49.21138 6.56499 45117 ft 527 kts 158°
2026-04-27 17:53 49.14434 6.61030 45110 ft 526 kts 158°
2026-04-27 17:54 49.07723 6.65534 45112 ft 528 kts 158°
2026-04-27 17:54 49.01017 6.69867 45099 ft 526 kts 163°
2026-04-27 17:55 48.93881 6.71835 45106 ft 519 kts 181°
2026-04-27 17:55 48.86687 6.71325 45114 ft 516 kts 188°
2026-04-27 17:56 48.79496 6.70716 45114 ft 519 kts 182°
2026-04-27 17:56 48.72268 6.70702 45114 ft 518 kts 185°
2026-04-27 17:57 48.65066 6.70228 45115 ft 519 kts 184°
2026-04-27 17:57 48.57845 6.70080 45112 ft 518 kts 184°
2026-04-27 17:58 48.50637 6.69715 45111 ft 519 kts 184°
2026-04-27 17:58 48.43418 6.69491 45097 ft 518 kts 184°
2026-04-27 17:59 48.36216 6.69182 45091 ft 518 kts 184°
2026-04-27 17:59 48.29056 6.68923 45093 ft 518 kts 184°
2026-04-27 18:00 48.21852 6.69693 45092 ft 522 kts 170°
2026-04-27 18:00 48.15026 6.73519 45089 ft 528 kts 153°
2026-04-27 18:01 48.09164 6.80161 45086 ft 531 kts 135°
2026-04-27 18:01 48.04757 6.89023 45094 ft 533 kts 120°
2026-04-27 18:02 48.01208 6.98770 45106 ft 533 kts 119°
2026-04-27 18:02 47.97102 7.07954 45101 ft 532 kts 128°
2026-04-27 18:03 47.92506 7.16529 45097 ft 533 kts 127°
2026-04-27 18:03 47.88294 7.25640 45102 ft 533 kts 126°
2026-04-27 18:04 47.83837 7.34472 45099 ft 533 kts 128°
2026-04-27 18:04 47.79511 7.43420 45085 ft 533 kts 126°
2026-04-27 18:05 47.75113 7.52282 45078 ft 532 kts 127°
2026-04-27 18:05 47.70720 7.61185 45083 ft 534 kts 127°
2026-04-27 18:06 47.66351 7.70002 45082 ft 535 kts 127°
2026-04-27 18:06 47.61936 7.78860 45084 ft 534 kts 127°
2026-04-27 18:07 47.57522 7.87719 45087 ft 534 kts 127°
2026-04-27 18:07 47.53092 7.96551 45082 ft 534 kts 127°
2026-04-27 18:08 47.48659 8.05388 45081 ft 535 kts 127°
2026-04-27 18:08 47.44216 8.14196 45076 ft 534 kts 127°
2026-04-27 18:09 47.39773 8.22990 45079 ft 534 kts 127°
2026-04-27 18:09 47.35317 8.31770 45089 ft 534 kts 127°
2026-04-27 18:10 47.30857 8.40540 45088 ft 535 kts 128°
2026-04-27 18:10 47.26385 8.49298 45086 ft 535 kts 128°
2026-04-27 18:11 47.22020 8.58165 45097 ft 534 kts 127°
2026-04-27 18:11 47.17617 8.66984 45100 ft 535 kts 127°
2026-04-27 18:12 47.13287 8.75768 45093 ft 534 kts 127°
2026-04-27 18:12 47.08887 8.84552 45113 ft 534 kts 127°
2026-04-27 18:13 47.04508 8.93353 45107 ft 534 kts 127°
2026-04-27 18:13 47.00109 9.02105 45083 ft 532 kts 127°
2026-04-27 18:14 46.95725 9.10839 45114 ft 530 kts 127°
2026-04-27 18:14 46.91331 9.19537 45106 ft 531 kts 127°
2026-04-27 18:15 46.86941 9.28221 45106 ft 531 kts 127°
2026-04-27 18:15 46.82534 9.36898 45101 ft 531 kts 127°
2026-04-27 18:16 46.78124 9.45561 45090 ft 532 kts 127°
2026-04-27 18:16 46.73688 9.54244 45117 ft 535 kts 127°
2026-04-27 18:17 46.69248 9.62914 45133 ft 533 kts 128°
2026-04-27 18:17 46.64827 9.71511 45144 ft 534 kts 128°
2026-04-27 18:18 46.60374 9.80152 45159 ft 532 kts 128°
2026-04-27 18:18 46.55922 9.88758 45153 ft 532 kts 128°
2026-04-27 18:19 46.51467 9.97347 45146 ft 531 kts 128°
2026-04-27 18:19 46.46792 10.05648 45127 ft 530 kts 137°
2026-04-27 18:20 46.41100 10.12433 45127 ft 531 kts 144°
2026-04-27 18:20 46.35422 10.19173 45096 ft 532 kts 140°
2026-04-27 18:21 46.29756 10.26032 45101 ft 531 kts 143°
2026-04-27 18:21 46.24024 10.32761 45095 ft 531 kts 141°
2026-04-27 18:22 46.18345 10.39587 45101 ft 530 kts 142°
2026-04-27 18:22 46.12633 10.46289 45101 ft 530 kts 142°
2026-04-27 18:23 46.06954 10.53042 45079 ft 529 kts 142°
2026-04-27 18:23 46.01241 10.59725 45083 ft 529 kts 142°
2026-04-27 18:24 45.95587 10.66400 45079 ft 529 kts 142°
2026-04-27 18:24 45.89876 10.73066 45084 ft 530 kts 142°
2026-04-27 18:25 45.84163 10.79751 45073 ft 529 kts 142°
2026-04-27 18:25 45.78439 10.86410 45074 ft 530 kts 142°
2026-04-27 18:26 45.72711 10.93069 45069 ft 530 kts 142°
2026-04-27 18:26 45.66976 10.99709 45060 ft 530 kts 142°
2026-04-27 18:27 45.64285 11.03304 45003 ft 532 kts 130°
2026-04-27 18:27 45.62191 11.07559 45072 ft 531 kts 124°
2026-04-27 18:27 45.58211 11.16561 45075 ft 532 kts 122°
2026-04-27 18:28 45.54188 11.25439 45064 ft 533 kts 123°
2026-04-27 18:28 45.50213 11.34271 45064 ft 532 kts 123°
2026-04-27 18:29 45.46187 11.43131 44920 ft 525 kts 124°
2026-04-27 18:29 45.43807 11.47008 44059 ft 514 kts 140°
2026-04-27 18:29 45.40943 11.49893 43339 ft 499 kts 155°
2026-04-27 18:30 45.37752 11.51634 42684 ft 483 kts 168°
2026-04-27 18:30 45.34487 11.52407 42086 ft 472 kts 175°
2026-04-27 18:30 45.31242 11.52962 41438 ft 469 kts 176°
2026-04-27 18:30 45.27997 11.53487 40789 ft 469 kts 176°
2026-04-27 18:31 45.25847 11.53860 40359 ft 470 kts 175°
2026-04-27 18:31 45.22602 11.54457 39706 ft 470 kts 175°
2026-04-27 18:31 45.19356 11.55043 39059 ft 470 kts 175°
2026-04-27 18:31 45.16113 11.55598 38346 ft 469 kts 175°
2026-04-27 18:32 45.12874 11.56155 37707 ft 470 kts 175°
2026-04-27 18:32 45.09618 11.56728 37062 ft 471 kts 174°
2026-04-27 18:32 45.06371 11.57286 36411 ft 473 kts 174°
2026-04-27 18:32 45.03081 11.57832 35757 ft 474 kts 175°
2026-04-27 18:33 44.99796 11.58382 35097 ft 476 kts 174°
2026-04-27 18:33 44.96511 11.59020 34450 ft 477 kts 173°
2026-04-27 18:33 44.93212 11.59637 33753 ft 478 kts 174°
2026-04-27 18:33 44.89903 11.60178 33088 ft 480 kts 174°
2026-04-27 18:34 44.86584 11.60722 32422 ft 481 kts 174°
2026-04-27 18:34 44.83295 11.61308 31760 ft 483 kts 173°
2026-04-27 18:34 44.79947 11.61541 31082 ft 482 kts 184°
2026-04-27 18:34 44.76591 11.61226 30444 ft 483 kts 186°
2026-04-27 18:35 44.73265 11.60830 29731 ft 476 kts 186°
2026-04-27 18:35 44.69979 11.60500 29081 ft 472 kts 185°
2026-04-27 18:35 44.66722 11.60235 28433 ft 467 kts 185°
2026-04-27 18:35 44.63495 11.59942 27790 ft 462 kts 185°
2026-04-27 18:36 44.60307 11.59611 27157 ft 457 kts 186°
2026-04-27 18:36 44.57156 11.59296 26530 ft 452 kts 185°
2026-04-27 18:36 44.54029 11.59011 25910 ft 448 kts 185°
2026-04-27 18:36 44.50936 11.58727 25296 ft 443 kts 185°
2026-04-27 18:37 44.47875 11.58430 24691 ft 439 kts 185°
2026-04-27 18:37 44.44835 11.58134 24089 ft 435 kts 185°
2026-04-27 18:37 44.41828 11.57850 23465 ft 431 kts 185°
2026-04-27 18:37 44.38851 11.57571 22855 ft 427 kts 185°
2026-04-27 18:38 44.35897 11.57290 22273 ft 424 kts 185°
2026-04-27 18:38 44.32967 11.57011 21691 ft 420 kts 185°
2026-04-27 18:38 44.30058 11.56736 21110 ft 417 kts 185°
2026-04-27 18:38 44.27176 11.56465 20482 ft 414 kts 185°
2026-04-27 18:39 44.24317 11.56194 19917 ft 410 kts 185°
2026-04-27 18:39 44.21484 11.55924 19355 ft 406 kts 185°
2026-04-27 18:39 44.18712 11.55661 18806 ft 403 kts 185°
2026-04-27 18:39 44.15945 11.55401 18241 ft 389 kts 185°
2026-04-27 18:40 44.13322 11.55156 17696 ft 367 kts 185°
2026-04-27 18:40 44.10851 11.54922 17208 ft 347 kts 185°
2026-04-27 18:40 44.08491 11.54697 16754 ft 334 kts 185°
2026-04-27 18:40 44.06195 11.54479 16301 ft 327 kts 185°
2026-04-27 18:41 44.03935 11.54267 15854 ft 324 kts 185°
2026-04-27 18:41 44.01700 11.54052 15419 ft 320 kts 185°
2026-04-27 18:41 43.99564 11.53320 14911 ft 315 kts 207°
2026-04-27 18:41 43.97697 11.51774 14550 ft 312 kts 214°
2026-04-27 18:42 43.95861 11.50172 14132 ft 311 kts 213°
2026-04-27 18:42 43.94647 11.49125 13839 ft 309 kts 213°
2026-04-27 18:42 43.92212 11.47052 13246 ft 306 kts 212°
2026-04-27 18:42 43.90407 11.45511 12821 ft 304 kts 213°
2026-04-27 18:43 43.88634 11.43991 12406 ft 303 kts 213°
2026-04-27 18:43 43.86846 11.42462 11965 ft 301 kts 213°
2026-04-27 18:43 43.85067 11.40944 11580 ft 299 kts 212°
2026-04-27 18:43 43.83307 11.39443 11169 ft 296 kts 212°
2026-04-27 18:44 43.81558 11.37952 10762 ft 294 kts 212°
2026-04-27 18:44 43.79826 11.36475 10367 ft 292 kts 213°
2026-04-27 18:44 43.78102 11.35007 9964 ft 290 kts 212°
2026-04-27 18:44 43.76388 11.33548 9545 ft 287 kts 212°
2026-04-27 18:45 43.74852 11.31821 9126 ft 284 kts 227°
2026-04-27 18:45 43.73555 11.29772 8772 ft 283 kts 230°
2026-04-27 18:45 43.72268 11.27712 8389 ft 281 kts 229°
2026-04-27 18:45 43.70971 11.25713 8004 ft 278 kts 228°
2026-04-27 18:46 43.69678 11.23732 7595 ft 274 kts 229°
2026-04-27 18:46 43.68451 11.21838 7247 ft 252 kts 229°
2026-04-27 18:46 43.67329 11.20102 6931 ft 236 kts 229°
2026-04-27 18:46 43.66244 11.18428 6646 ft 232 kts 229°
2026-04-27 18:47 43.65186 11.16795 6353 ft 231 kts 228°
2026-04-27 18:47 43.64121 11.15156 6050 ft 227 kts 229°
2026-04-27 18:47 43.63068 11.13548 5757 ft 225 kts 228°
2026-04-27 18:47 43.62015 11.11944 5467 ft 223 kts 228°
2026-04-27 18:48 43.60982 11.10368 5168 ft 221 kts 229°
2026-04-27 18:48 43.60200 11.08586 4806 ft 215 kts 253°
2026-04-27 18:48 43.60167 11.06624 4553 ft 199 kts 281°
2026-04-27 18:48 43.60749 11.04947 4327 ft 193 kts 307°
2026-04-27 18:49 43.61718 11.03687 4101 ft 190 kts 317°
2026-04-27 18:49 43.62706 11.02477 3845 ft 189 kts 316°
2026-04-27 18:49 43.63674 11.01277 3593 ft 186 kts 316°
2026-04-27 18:49 43.64646 11.00092 3348 ft 186 kts 319°
2026-04-27 18:50 43.65839 10.99430 3075 ft 188 kts 351°
2026-04-27 18:50 43.67112 10.99698 2986 ft 193 kts 22°
2026-04-27 18:50 43.68190 11.00786 3019 ft 194 kts 43°
2026-04-27 18:50 43.69103 11.02158 3035 ft 194 kts 47°
2026-04-27 18:51 43.70008 11.03560 3014 ft 195 kts 47°
2026-04-27 18:51 43.70927 11.04961 2923 ft 199 kts 47°
2026-04-27 18:51 43.71841 11.06371 2663 ft 196 kts 47°
2026-04-27 18:51 43.72742 11.07763 2408 ft 194 kts 46°
2026-04-27 18:52 43.73632 11.09138 2148 ft 186 kts 47°
2026-04-27 18:52 43.74432 11.10368 1884 ft 157 kts 46°
2026-04-27 18:52 43.75106 11.11409 1676 ft 138 kts 46°
2026-04-27 18:53 43.76340 11.13301 1368 ft 130 kts 46°
2026-04-27 18:53 43.76949 11.14228 1173 ft 130 kts 46°
2026-04-27 18:53 43.77543 11.15155 1020 ft 128 kts 47°
2026-04-27 18:53 43.78130 11.16065 864 ft 128 kts 46°
2026-04-27 18:54 43.78727 11.16981 695 ft 127 kts 46°
2026-04-27 18:54 43.79308 11.17884 535 ft 124 kts 47°
2026-04-27 18:54 43.79875 11.18768 380 ft 120 kts 46°
2026-04-27 18:54 43.80447 11.19649 208 ft 123 kts 46°
2026-04-27 18:55 43.80997 11.20491 124 ft 104 kts 48°
2026-04-27 18:55 43.81296 11.20956 130 ft 30 kts 47°
2026-04-27 18:55 43.81422 11.21153 130 ft 22 kts 48°
2026-04-27 18:55 43.81493 11.21267 129 ft 13 kts 51°
2026-04-27 18:56 43.81472 11.21351 134 ft 17 kts 155°
2026-04-27 18:56 43.81349 11.21361 142 ft 21 kts 224°
2026-04-27 18:56 43.81256 11.21190 138 ft 15 kts 278°
2026-04-27 18:56 43.81265 11.20967 130 ft 29 kts 271°
2026-04-27 18:57 43.81171 11.20769 126 ft 30 kts 228°
2026-04-27 18:57 43.81023 11.20538 121 ft 32 kts 228°
2026-04-27 18:57 43.80885 11.20325 126 ft 28 kts 228°
2026-04-27 18:57 43.80745 11.20107 127 ft 31 kts 227°
2026-04-27 18:58 43.80607 11.19897 128 ft 24 kts 227°
2026-04-27 18:58 43.80560 11.19816 127 ft 10 kts 250°
2026-04-27 18:58 43.80606 11.19715 126 ft 10 kts 317°
2026-04-27 18:58 43.80655 11.19653 126 ft 7 kts 318°
2026-04-27 18:59 43.80673 11.19625 126 ft 1 kts 283°
2026-04-27 18:59 43.80658 11.19598 127 ft 5 kts 226°
2026-04-27 18:59 43.80648 11.19581 127 ft 0 kts 229°
2026-04-27 18:59 43.80647 11.19580 127 ft 0 kts 229°